Flag for Germany Weather past 2 weeks in Würselen, North Rhine-Westphalia, Germany

Now
41 °F

Cloudy.


Feels Like: 34 °F
Forecast: 33 / 39 °F
Wind: 12 mph from Southwest

Location: Maastricht Airport Zuid Limburg

Current Time: Dec 25, 2014 at 12:32:28 PM

Latest Report: Dec 25, 2014 at 11:55 AM


Visibility: N/A

Pressure: 30.24 "Hg

Humidity: 87%

Dew point: 37 °F

Location of WürselenLocation

Historic Weather in Würselen — Graph

°F

Würselen temperature yesterday

Maximum temperature yesterday: 48 °F (at 12:25 AM)
Minimum temperature yesterday: 41 °F (at 11:25 PM)
Average temperature yesterday: 46 °F

Past Weeks' High & Low Weather Summary

 TemperatureHumidityPressure
High54 °F (Dec 18, 11:25 AM)100% (Dec 12, 6:25 PM)30.42 "Hg (Dec 12, 6:25 PM)
Low32 °F (Dec 14, 2:25 AM)66% (Dec 10, 3:55 PM)29.42 "Hg (Dec 12, 2:55 PM)
Average44 °F88%29.97 "Hg
* Reported Dec 10 11:25 AM — Dec 25 11:25 AM, Würselen, Weather by CustomWeather, © 2014

Note: Actual official high and low records may vary slightly from our data, if they occured in-between our weather recording intervals... More about our weather records

Advertising

Würselen weather history for previous 24 hours

 ConditionsComfort  
Time TempWeatherWind HumidityBarometerVisibility
11:25 AM
Dec 25
41 °FBroken clouds.12 mph87%30.24 "HgN/A
10:55 AM41 °FPartly sunny.10 mph87%30.24 "HgN/A
10:25 AM39 °FPassing clouds.12 mph87%30.24 "HgN/A
9:55 AM39 °FMostly cloudy.13 mph87%30.24 "HgN/A
9:25 AM39 °FOvercast.12 mph87%30.21 "HgN/A
8:55 AM39 °FMostly cloudy.13 mph87%30.21 "HgN/A
8:25 AM37 °FPassing clouds.10 mph87%30.21 "HgN/A
7:55 AM37 °FPassing clouds.10 mph87%30.21 "HgN/A
7:25 AM37 °FPassing clouds.15 mph87%30.18 "HgN/A
6:55 AM39 °FPassing clouds.13 mph81%30.18 "HgN/A
6:25 AM39 °FPassing clouds.14 mph81%30.18 "HgN/A
5:55 AM37 °FChilly.14 mph87%30.18 "HgN/A
5:25 AM37 °FClear.14 mph87%30.18 "HgN/A
4:25 AM39 °FChilly.12 mph81%30.18 "HgN/A
3:55 AM39 °FClear.10 mph81%30.18 "HgN/A
3:25 AM39 °FClear.10 mph81%30.18 "HgN/A
2:55 AM39 °FClear.13 mph81%30.18 "HgN/A
2:25 AM41 °FClear.12 mph76%30.15 "HgN/A
1:55 AM41 °FPassing clouds.10 mph76%30.15 "HgN/A
1:25 AM41 °FPassing clouds.12 mph76%30.15 "HgN/A
12:55 AM41 °FPassing clouds.13 mph76%30.15 "HgN/A
12:25 AM41 °FPassing clouds.13 mph81%30.15 "HgN/A
11:55 PM
Dec 24
41 °FMostly cloudy.8 mph81%30.15 "HgN/A
11:25 PM41 °FClear.8 mph81%30.15 "HgN/A
10:55 PM43 °FPassing clouds.8 mph81%30.12 "HgN/A
10:25 PM43 °FPassing clouds.8 mph87%30.12 "HgN/A
9:55 PM43 °FPartly cloudy.12 mph87%30.12 "HgN/A
9:25 PM45 °FPassing clouds.8 mph87%30.12 "HgN/A
8:55 PM45 °FPartly cloudy.7 mph93%30.09 "HgN/A
8:25 PM45 °FPartly cloudy.6 mph93%30.09 "HgN/A
7:55 PM45 °FPartly cloudy.7 mph93%30.09 "HgN/A
7:25 PM45 °FPartly cloudy.7 mph93%30.07 "HgN/A
6:55 PM45 °FPartly cloudy.8 mph93%30.04 "HgN/A
6:25 PM45 °FSprinkles. Partly cloudy.9 mph100%30.04 "Hg4 mi
5:55 PM46 °FLight rain. Partly cloudy.8 mph93%30.01 "Hg2 mi
5:25 PM48 °FSprinkles. Partly cloudy.10 mph100%30.01 "Hg2 mi
4:55 PM48 °FDrizzle. Overcast.14 mph100%29.98 "Hg2 mi
4:25 PM48 °FDrizzle. Mostly cloudy.16 mph100%29.98 "Hg2 mi
3:55 PM48 °FDrizzle. Mostly cloudy.17 mph94%29.98 "Hg1 mi
3:25 PM48 °FDrizzle. Broken clouds.18 mph94%29.98 "Hg1 mi
2:55 PM48 °FDrizzle. Partly sunny.22 mph94%29.98 "Hg2 mi
2:25 PM48 °FDrizzle. Broken clouds.22 mph94%29.98 "Hg1 mi
1:55 PM48 °FDrizzle. Mostly cloudy.23 mph94%29.98 "Hg2 mi
1:25 PM48 °FDrizzle. More clouds than sun.22 mph94%29.98 "Hg2 mi
12:55 PM48 °FCloudy.24 mph94%29.98 "HgN/A
12:25 PM46 °FCloudy.23 mph93%30.01 "HgN/A
Weather by CustomWeather, © 2014

See weather overviewHow to use our weather pages